Location: Ariel
(45.9570°N, 122.5700°W)
Time: 11:30:36
(UTC-07:00)

Altair - Pass Details

Date: 28 July 2019
Orbit: 1501 x 1683 km, 47.2° (Epoch: 24 August)

Event Time Altitude Azimuth Distance (km) Brightness Sun altitude
Rises 12:27:50 0° 252° (WSW) 4,665 10.0 61.1°
Reaches altitude 10° 12:30:52 10° 252° (WSW) 3,670 9.6 61.3°
Maximum altitude 12:40:06 88° 166° (SSE) 1,506 8.9 61.9°
Drops below altitude 10° 12:49:20 10° 77° (ENE) 3,670 9.6 62.4°
Sets 12:52:23 0° 77° (ENE) 4,665 10.0 62.5°
